GOES 17

Last updated on Thu Nov 21 2024 00:02:20 GMT+0000 (Coordinated Universal Time)

1 43226U 18022A 24325.45696503 -.00000089 00000+0 00000+0 0 9990 2 43226 0.0057 257.0283 0003486 352.3922 230.3699 1.00270980 24673
UTC large
Height (km)
Speed (km/s)
/
Latitude / Longitude
Inclination (degrees)
Orbital Period (minutes)
Azimuth
Elevation
Range (km)
Doppler Factor

Next 0 passes for location: London (51.5072 / 0.1276)

Sorry there are no passes over London.